• In Netherlands
  • List of Countries
  • For 7 days
  • Water Temperature
  • Satellite Maps
  • Weather Map
  • Weather Widgets
  • user-avatar
    Login

    Hourly Weather Hrodna

    Today, 23 March, Thursday

    Time Temperature Precipitation Wind Pressure Humidity
    00:00 +2°C° 0 mm 1 mps 756 mmHg 84%
    01:00 +2°C° 0 mm 1 mps 756 mmHg 84%
    02:00 +1°C° 0 mm 1 mps 757 mmHg 83%
    03:00 +1°C° 0 mm 1 mps 757 mmHg 81%
    04:00 +1°C° 0 mm 1 mps 757 mmHg 79%
    05:00 +1°C° 0 mm 1 mps 757 mmHg 78%
    06:00 +2°C° 0 mm 1 mps 758 mmHg 74%
    07:00 +3°C° 0 mm 1 mps 758 mmHg 70%
    08:00 +5°C° 0 mm 1 mps 758 mmHg 65%
    09:00 +6°C° 0 mm 1 mps 758 mmHg 62%
    10:00 +8°C° 0 mm 1 mps 758 mmHg 58%
    11:00 +9°C° 0 mm 1 mps 759 mmHg 54%
    12:00 +10°C° 0 mm 1 mps 758 mmHg 54%
    13:00 +10°C° 0 mm 1 mps 758 mmHg 53%
    14:00 +11°C° 0 mm 1 mps 758 mmHg 52%
    15:00 +10°C° 0 mm 1 mps 758 mmHg 56%
    16:00 +10°C° 0 mm 1 mps 758 mmHg 60%
    17:00 +10°C° 0 mm 1 mps 757 mmHg 65%
    18:00 +9°C° 0 mm 1 mps 757 mmHg 69%
    19:00 +7°C° 0 mm 2 mps 757 mmHg 74%
    20:00 +5°C° 0 mm 2 mps 757 mmHg 78%
    21:00 +5°C° 0 mm 2 mps 757 mmHg 79%
    22:00 +5°C° 0 mm 2 mps 757 mmHg 79%
    23:00 +5°C° 0 mm 2 mps 757 mmHg 80%

    Tomorrow, 24 March, Friday

    Time Temperature Precipitation Wind Pressure Humidity
    00:00 +5°C° 0.1 mm 2 mps 757 mmHg 81%
    01:00 +4°C° 0.1 mm 2 mps 756 mmHg 82%
    02:00 +4°C° 0.1 mm 2 mps 756 mmHg 84%
    03:00 +4°C° 0.1 mm 2 mps 756 mmHg 85%
    04:00 +4°C° 0.1 mm 2 mps 756 mmHg 86%
    05:00 +4°C° 0.1 mm 2 mps 756 mmHg 86%
    06:00 +4°C° 0 mm 2 mps 756 mmHg 86%
    07:00 +4°C° 0 mm 2 mps 756 mmHg 85%
    08:00 +4°C° 0 mm 2 mps 756 mmHg 84%
    09:00 +5°C° 0 mm 3 mps 757 mmHg 78%
    10:00 +7°C° 0 mm 3 mps 757 mmHg 71%
    11:00 +8°C° 0 mm 3 mps 757 mmHg 65%
    12:00 +9°C° 0.1 mm 3 mps 757 mmHg 63%
    13:00 +8°C° 0.1 mm 4 mps 758 mmHg 61%
    14:00 +8°C° 0.1 mm 4 mps 758 mmHg 59%
    15:00 +8°C° 0.1 mm 4 mps 758 mmHg 60%
    16:00 +8°C° 0.1 mm 3 mps 758 mmHg 61%
    17:00 +8°C° 0.1 mm 3 mps 758 mmHg 62%
    18:00 +7°C° 0 mm 3 mps 759 mmHg 67%
    19:00 +4°C° 0 mm 3 mps 759 mmHg 73%
    20:00 +2°C° 0 mm 3 mps 760 mmHg 78%
    21:00 +3°C° 0 mm 2 mps 760 mmHg 80%
    22:00 +2°C° 0 mm 2 mps 760 mmHg 82%
    23:00 +2°C° 0 mm 2 mps 761 mmHg 84%

    Day after tomorrow, 25 March, Saturday

    Time Temperature Precipitation Wind Pressure Humidity
    00:00 +1°C° 0 mm 2 mps 761 mmHg 87%
    01:00 +1°C° 0 mm 2 mps 761 mmHg 89%
    02:00 +1°C° 0 mm 1 mps 761 mmHg 91%
    03:00 -1°C° 0 mm 2 mps 760 mmHg 91%
    04:00 -1°C° 0 mm 2 mps 760 mmHg 91%
    05:00 -2°C° 0 mm 2 mps 760 mmHg 91%
    06:00 -1°C° 0 mm 2 mps 759 mmHg 85%
    07:00 +1°C° 0 mm 2 mps 759 mmHg 79%
    08:00 +2°C° 0 mm 2 mps 759 mmHg 74%
    09:00 +2°C° 0 mm 3 mps 758 mmHg 67%
    10:00 +4°C° 0 mm 3 mps 757 mmHg 60%
    11:00 +5°C° 0 mm 4 mps 756 mmHg 53%
    12:00 +5°C° 0 mm 4 mps 756 mmHg 54%
    13:00 +5°C° 0 mm 4 mps 755 mmHg 54%
    14:00 +6°C° 0 mm 5 mps 754 mmHg 54%
    15:00 +5°C° 0.4 mm 4 mps 753 mmHg 63%
    16:00 +4°C° 0.4 mm 4 mps 752 mmHg 71%
    17:00 +3°C° 0.4 mm 3 mps 751 mmHg 80%
    18:00 +3°C° 0.5 mm 3 mps 751 mmHg 84%
    19:00 +1°C° 0.5 mm 4 mps 750 mmHg 88%
    20:00 +1°C° 0.5 mm 4 mps 750 mmHg 92%
    21:00 +1°C° 0.1 mm 4 mps 750 mmHg 93%
    22:00 +2°C° 0.1 mm 3 mps 749 mmHg 94%
    23:00 +2°C° 0.1 mm 3 mps 749 mmHg 94%

    26 March, Sunday

    Time Temperature Precipitation Wind Pressure Humidity
    00:00 +3°C° 0 mm 2 mps 749 mmHg 94%
    01:00 +2°C° 0 mm 2 mps 749 mmHg 95%
    02:00 +3°C° 0 mm 1 mps 749 mmHg 95%
    03:00 +3°C° 0 mm 1 mps 749 mmHg 96%
    04:00 +2°C° 0 mm 1 mps 749 mmHg 97%
    05:00 +2°C° 0 mm 1 mps 749 mmHg 98%
    06:00 +1°C° 0 mm 2 mps 750 mmHg 96%
    07:00 +1°C° 0 mm 3 mps 750 mmHg 95%
    08:00 +1°C° 0 mm 3 mps 750 mmHg 93%
    09:00 +1°C° 0 mm 3 mps 751 mmHg 90%
    10:00 +2°C° 0 mm 3 mps 751 mmHg 87%
    11:00 +1°C° 0 mm 4 mps 752 mmHg 83%
    12:00 +3°C° 0 mm 4 mps 752 mmHg 83%
    13:00 +3°C° 0 mm 4 mps 753 mmHg 82%
    14:00 +3°C° 0 mm 4 mps 753 mmHg 81%
    15:00 +3°C° 0 mm 3 mps 753 mmHg 81%
    16:00 +3°C° 0 mm 3 mps 754 mmHg 81%
    17:00 +4°C° 0 mm 3 mps 754 mmHg 81%
    18:00 +3°C° 0 mm 3 mps 755 mmHg 85%
    19:00 +2°C° 0 mm 3 mps 755 mmHg 90%
    20:00 +2°C° 0 mm 2 mps 755 mmHg 94%
    21:00 +1°C° 0 mm 2 mps 756 mmHg 95%
    22:00 +1°C° 0 mm 2 mps 756 mmHg 96%
    23:00 -1°C° 0 mm 2 mps 756 mmHg 97%

    27 March, Monday

    Time Temperature Precipitation Wind Pressure Humidity
    00:00 -1°C° 0 mm 2 mps 756 mmHg 97%
    01:00 -2°C° 0 mm 2 mps 756 mmHg 97%
    02:00 0°C° 0 mm 1 mps 756 mmHg 97%
    03:00 0°C° 0 mm 1 mps 756 mmHg 96%
    04:00 0°C° 0 mm 1 mps 756 mmHg 96%
    05:00 -2°C° 0 mm 2 mps 756 mmHg 95%
    06:00 -1°C° 0 mm 2 mps 756 mmHg 91%
    07:00 +1°C° 0 mm 2 mps 756 mmHg 88%
    08:00 +2°C° 0 mm 2 mps 756 mmHg 84%
    09:00 +3°C° 0 mm 2 mps 756 mmHg 83%
    10:00 +3°C° 0 mm 3 mps 756 mmHg 81%
    11:00 +4°C° 0 mm 3 mps 756 mmHg 80%
    12:00 +4°C° 0 mm 3 mps 756 mmHg 80%
    13:00 +4°C° 0 mm 3 mps 756 mmHg 81%
    14:00 +5°C° 0 mm 3 mps 755 mmHg 81%
    15:00 +6°C° 0 mm 2 mps 755 mmHg 82%
    16:00 +6°C° 0 mm 2 mps 755 mmHg 83%
    17:00 +7°C° 0 mm 1 mps 755 mmHg 85%
    18:00 +6°C° 0 mm 1 mps 755 mmHg 87%
    19:00 +5°C° 0 mm 1 mps 755 mmHg 89%
    20:00 +4°C° 0 mm 1 mps 755 mmHg 92%
    21:00 +3°C° 0 mm 1 mps 755 mmHg 93%
    22:00 +2°C° 0 mm 2 mps 755 mmHg 94%
    23:00 +1°C° 0 mm 2 mps 755 mmHg 96%

    28 March, Tuesday

    Time Temperature Precipitation Wind Pressure Humidity
    00:00 +1°C° 0 mm 2 mps 755 mmHg 96%
    01:00 +1°C° 0 mm 2 mps 755 mmHg 96%
    02:00 -1°C° 0 mm 2 mps 754 mmHg 96%
    03:00 -1°C° 0 mm 2 mps 754 mmHg 95%
    04:00 -1°C° 0 mm 2 mps 753 mmHg 94%
    05:00 -1°C° 0 mm 3 mps 753 mmHg 93%
    06:00 0°C° 0 mm 3 mps 753 mmHg 89%
    07:00 +1°C° 0 mm 3 mps 752 mmHg 86%
    08:00 0°C° 0 mm 4 mps 752 mmHg 82%
    09:00 +3°C° 0 mm 4 mps 752 mmHg 79%
    10:00 +5°C° 0 mm 4 mps 752 mmHg 77%
    11:00 +7°C° 0 mm 4 mps 752 mmHg 75%
    12:00 +7°C° 0 mm 4 mps 752 mmHg 77%
    13:00 +7°C° 0 mm 4 mps 751 mmHg 80%
    14:00 +7°C° 0 mm 4 mps 751 mmHg 82%
    15:00 +7°C° 0 mm 4 mps 751 mmHg 83%
    16:00 +7°C° 0 mm 4 mps 751 mmHg 83%
    17:00 +7°C° 0 mm 4 mps 751 mmHg 84%
    18:00 +7°C° 0 mm 3 mps 752 mmHg 84%
    19:00 +5°C° 0 mm 3 mps 752 mmHg 85%
    20:00 +4°C° 0 mm 3 mps 752 mmHg 86%
    21:00 +3°C° 0 mm 3 mps 753 mmHg 87%
    22:00 +2°C° 0 mm 3 mps 753 mmHg 88%
    23:00 +1°C° 0 mm 3 mps 754 mmHg 89%
    Show more